{"data":{"norad_id":64073,"epoch":"2026-09-20T07:44:43.814976Z","epoch_age_seconds":158834,"freshness":"FRESH","line1":"1 64073U 25107K   26263.32272934  .00130289  00000+0  10011-2 0  9993","line2":"2 64073  43.0001   5.5073 0001601 270.9870  89.0814 15.70885766 77907","mean_motion":15.70885766,"eccentricity":0.0001601,"inclination_deg":43.0001,"raan_deg":5.5073,"arg_perigee_deg":270.987,"mean_anomaly_deg":89.0814,"bstar":0.0010011,"rev_number":7790,"period_min":91.668027756514,"perigee_km":355.28606329987,"apogee_km":357.44245060234,"semimajor_km":6734.5012569511,"source":"CELESTRAK","updated_at":"2026-09-21T09:00:35.193396Z"}}